Tracking 20621 objects as of 1-Apr-2020
HD Live streaming from Space Station
objects crossing your sky now

DELTA 1 DEB

Track DELTA 1 DEB now!
10-day predictions


NORAD ID: 10206
Int'l Code: 1977-065AK
Perigee: 713.0 km
Apogee: 1,584.3 km
Inclination: 29.2 °
Period: 108.2 minutes
Semi major axis: 7519 km
RCS: 0.071 m2 (small)
Launch date: July 14, 1977
Source: United States (US)
Launch site: AIR FORCE EASTERN TEST RANGE (AFETR)

Note: This is SATELLITE DEBRIS
aabbcc
Your satellite tracking list
Your tracking list is empty




NASA's NSSDC Master Catalog

Two Line Element Set (TLE):
1 10206U 77065AK  20092.05865446  .00001362  00000-0  10526-2 0  9993
2 10206  29.2149 354.8084 0579322  77.4788 288.9924 13.31390334 29888
Source of the keplerian elements: AFSPC